Year,Month,Day,Hour,Minute,Value (Times are PST for temperature in C)
2015,06,17,10,35,18.80
2015,06,17,10,36,18.90
2015,06,17,10,37,18.80
2015,06,17,10,38,18.80
2015,06,17,10,39,18.60
2015,06,17,10,40,18.40
2015,06,17,10,41,18.30
2015,06,17,10,42,18.20
2015,06,17,10,43,18.10
2015,06,17,10,44,18.10
2015,06,17,10,45,18.20
2015,06,17,10,46,18.20
2015,06,17,10,47,18.20
2015,06,17,10,48,18.20
2015,06,17,10,49,18.30
2015,06,17,10,50,18.30
2015,06,17,10,51,18.40
2015,06,17,10,52,18.30
2015,06,17,10,53,18.30
2015,06,17,10,54,18.40
2015,06,17,10,55,18.40
2015,06,17,10,56,18.40
2015,06,17,10,57,18.50
2015,06,17,10,58,18.60
2015,06,17,10,59,18.70
2015,06,17,11,00,18.90
2015,06,17,11,01,19.10
2015,06,17,11,02,19.20
2015,06,17,11,03,19.40
2015,06,17,11,04,19.40
2015,06,17,11,05,19.30
2015,06,17,11,06,19.10
2015,06,17,11,07,19.20
2015,06,17,11,08,19.30
2015,06,17,11,09,19.30
2015,06,17,11,10,19.40
2015,06,17,11,11,19.50
2015,06,17,11,12,19.40
2015,06,17,11,13,19.20
2015,06,17,11,14,19.10
2015,06,17,11,15,19.10
2015,06,17,11,16,19.10
2015,06,17,11,17,19.20
2015,06,17,11,18,19.20
2015,06,17,11,19,19.40
2015,06,17,11,20,19.50
2015,06,17,11,21,19.50
2015,06,17,11,22,19.50
2015,06,17,11,23,19.50
2015,06,17,11,24,19.40
2015,06,17,11,25,19.30
2015,06,17,11,26,19.30
2015,06,17,11,27,19.40
2015,06,17,11,28,19.50
2015,06,17,11,29,19.50
2015,06,17,11,30,19.40
2015,06,17,11,31,19.30
2015,06,17,11,32,19.20
2015,06,17,11,33,19.10
2015,06,17,11,34,19.10
2015,06,17,11,35,19.10
2015,06,17,11,36,19.10
2015,06,17,11,37,19.00
2015,06,17,11,38,19.00
2015,06,17,11,39,19.00
2015,06,17,11,40,19.10
2015,06,17,11,41,19.20
2015,06,17,11,42,19.40
2015,06,17,11,43,19.40
2015,06,17,11,44,19.50
2015,06,17,11,45,19.50
2015,06,17,11,46,19.40
2015,06,17,11,47,19.20
2015,06,17,11,48,19.20
2015,06,17,11,49,19.40
2015,06,17,11,50,19.50
2015,06,17,11,51,19.60
2015,06,17,11,52,19.60
2015,06,17,11,53,19.60
2015,06,17,11,54,19.70
2015,06,17,11,55,19.70
2015,06,17,11,56,19.70
2015,06,17,11,57,19.70
2015,06,17,11,58,19.60
2015,06,17,11,59,19.60
2015,06,17,12,00,19.60
2015,06,17,12,01,19.70
2015,06,17,12,02,19.80
2015,06,17,12,03,19.90
2015,06,17,12,04,19.80
2015,06,17,12,05,19.90
2015,06,17,12,06,19.90
2015,06,17,12,07,19.90
2015,06,17,12,08,19.70
2015,06,17,12,09,19.50
2015,06,17,12,10,19.50
2015,06,17,12,11,19.40
2015,06,17,12,12,19.50
2015,06,17,12,13,19.60
2015,06,17,12,14,19.60
2015,06,17,12,15,19.50
2015,06,17,12,16,19.60
2015,06,17,12,17,19.80
2015,06,17,12,18,19.80
2015,06,17,12,19,19.90
2015,06,17,12,20,19.90
2015,06,17,12,21,20.00
2015,06,17,12,22,20.10
2015,06,17,12,23,20.20
2015,06,17,12,24,20.30
2015,06,17,12,25,20.30
2015,06,17,12,26,20.20
2015,06,17,12,27,20.10
2015,06,17,12,28,20.10
2015,06,17,12,29,20.10
2015,06,17,12,30,20.20
2015,06,17,12,31,20.30
2015,06,17,12,32,20.50
2015,06,17,12,33,20.50
2015,06,17,12,34,20.60
2015,06,17,12,35,20.50
2015,06,17,12,36,20.60
2015,06,17,12,37,20.70
2015,06,17,12,38,20.90
2015,06,17,12,39,21.00
2015,06,17,12,40,21.00
2015,06,17,12,41,21.00
2015,06,17,12,42,20.90
2015,06,17,12,43,20.80
2015,06,17,12,44,20.80
2015,06,17,12,45,20.80
2015,06,17,12,46,20.80
2015,06,17,12,47,20.90
2015,06,17,12,48,21.00
2015,06,17,12,49,21.00
2015,06,17,12,50,21.00
2015,06,17,12,51,20.90
2015,06,17,12,52,20.90
2015,06,17,12,53,21.00
2015,06,17,12,54,21.00
2015,06,17,12,55,21.10
2015,06,17,12,56,21.20
2015,06,17,12,57,21.30
2015,06,17,12,58,21.20
2015,06,17,12,59,21.20
2015,06,17,13,00,21.10
2015,06,17,13,01,21.10
2015,06,17,13,02,21.20
2015,06,17,13,03,21.30
2015,06,17,13,04,21.40
2015,06,17,13,05,21.30
2015,06,17,13,06,21.30
2015,06,17,13,07,21.30
2015,06,17,13,08,21.30
2015,06,17,13,09,21.30
2015,06,17,13,10,21.20
2015,06,17,13,11,21.10
2015,06,17,13,12,21.10
2015,06,17,13,13,21.10
2015,06,17,13,14,21.20
2015,06,17,13,15,21.30
2015,06,17,13,16,21.30
2015,06,17,13,17,21.30
2015,06,17,13,18,21.30
2015,06,17,13,19,21.20
2015,06,17,13,20,21.20
2015,06,17,13,21,21.10
2015,06,17,13,22,21.20
2015,06,17,13,23,21.30
2015,06,17,13,24,21.30
2015,06,17,13,25,21.50
2015,06,17,13,26,21.60
2015,06,17,13,27,21.60
2015,06,17,13,28,21.80
2015,06,17,13,29,21.70
2015,06,17,13,30,21.60
2015,06,17,13,31,21.70
2015,06,17,13,32,21.60
2015,06,17,13,33,21.50
2015,06,17,13,34,21.40
2015,06,17,13,35,21.40
2015,06,17,13,36,21.40
2015,06,17,13,37,21.60
2015,06,17,13,38,21.80
2015,06,17,13,39,22.00
2015,06,17,13,40,22.00
2015,06,17,13,41,22.00
2015,06,17,13,42,22.00
2015,06,17,13,43,22.00
2015,06,17,13,44,22.00
2015,06,17,13,45,21.90
2015,06,17,13,46,21.60
2015,06,17,13,47,21.60
2015,06,17,13,48,21.60
2015,06,17,13,49,21.60
2015,06,17,13,50,21.60
2015,06,17,13,51,21.70
2015,06,17,13,52,21.70
2015,06,17,13,53,21.80
2015,06,17,13,54,21.80
2015,06,17,13,55,21.70
2015,06,17,13,56,21.60
2015,06,17,13,57,21.60
2015,06,17,13,58,21.60
2015,06,17,13,59,21.60
2015,06,17,14,00,21.50
2015,06,17,14,01,21.50
2015,06,17,14,02,21.60
2015,06,17,14,03,21.50
2015,06,17,14,04,21.50
2015,06,17,14,05,21.60
2015,06,17,14,06,21.70
2015,06,17,14,07,21.80
2015,06,17,14,08,21.80
2015,06,17,14,09,21.90
2015,06,17,14,10,22.10
2015,06,17,14,11,22.20
2015,06,17,14,12,22.40
2015,06,17,14,13,22.70
2015,06,17,14,14,22.80
2015,06,17,14,15,22.80
2015,06,17,14,16,22.60
2015,06,17,14,17,22.60
2015,06,17,14,18,22.60
2015,06,17,14,19,22.70
2015,06,17,14,20,22.80
2015,06,17,14,21,22.90
2015,06,17,14,22,22.70
2015,06,17,14,23,22.70
2015,06,17,14,24,22.70
2015,06,17,14,25,22.70
2015,06,17,14,26,22.60
2015,06,17,14,27,22.40
2015,06,17,14,28,22.40
2015,06,17,14,29,22.30
2015,06,17,14,30,22.30
2015,06,17,14,31,22.30
2015,06,17,14,32,22.40
2015,06,17,14,33,22.50
2015,06,17,14,34,22.60
2015,06,17,14,35,22.70
2015,06,17,14,36,22.80
2015,06,17,14,37,22.90
2015,06,17,14,38,22.90
2015,06,17,14,39,23.10
2015,06,17,14,40,23.30
2015,06,17,14,41,23.30
2015,06,17,14,42,23.30
2015,06,17,14,43,23.40
2015,06,17,14,44,23.40
2015,06,17,14,45,23.30
2015,06,17,14,46,23.20
2015,06,17,14,47,23.20
2015,06,17,14,48,23.30
2015,06,17,14,49,23.30
2015,06,17,14,50,23.30
2015,06,17,14,51,23.30
2015,06,17,14,52,23.30
2015,06,17,14,53,23.20
2015,06,17,14,54,23.10
2015,06,17,14,55,23.10
2015,06,17,14,56,23.10
2015,06,17,14,57,23.10
2015,06,17,14,58,23.10
2015,06,17,14,59,23.00
2015,06,17,15,00,23.00
2015,06,17,15,01,23.10
2015,06,17,15,02,23.20
2015,06,17,15,03,23.30
2015,06,17,15,04,23.30
2015,06,17,15,05,23.30
2015,06,17,15,06,23.10
2015,06,17,15,07,23.00
2015,06,17,15,08,22.90
2015,06,17,15,09,22.90
2015,06,17,15,10,22.90
2015,06,17,15,11,23.00
2015,06,17,15,12,23.10
2015,06,17,15,13,23.20
2015,06,17,15,14,23.30
2015,06,17,15,15,23.30
2015,06,17,15,16,23.30
2015,06,17,15,17,23.30
2015,06,17,15,18,23.50
2015,06,17,15,19,23.60
2015,06,17,15,20,23.70
2015,06,17,15,21,23.80
2015,06,17,15,22,23.80
2015,06,17,15,23,23.70
2015,06,17,15,24,23.60
2015,06,17,15,25,23.60
2015,06,17,15,26,23.60
2015,06,17,15,27,23.60
2015,06,17,15,28,23.60
2015,06,17,15,29,23.60
2015,06,17,15,30,23.60
2015,06,17,15,31,23.70
2015,06,17,15,32,23.70
2015,06,17,15,33,23.60
2015,06,17,15,34,23.50
2015,06,17,15,35,23.40
2015,06,17,15,36,23.60
2015,06,17,15,37,23.60
2015,06,17,15,38,23.60
2015,06,17,15,39,23.70
2015,06,17,15,40,23.70
2015,06,17,15,41,23.80
2015,06,17,15,42,23.90
2015,06,17,15,43,24.00
2015,06,17,15,44,24.10
2015,06,17,15,45,24.20
2015,06,17,15,46,24.30
2015,06,17,15,47,24.30
2015,06,17,15,48,24.40
2015,06,17,15,49,24.40
2015,06,17,15,50,24.30
2015,06,17,15,51,24.10
2015,06,17,15,52,23.90
2015,06,17,15,53,23.70
2015,06,17,15,54,23.50
2015,06,17,15,55,23.20
2015,06,17,15,56,23.00
2015,06,17,15,57,22.90
2015,06,17,15,58,22.80
2015,06,17,15,59,22.70
2015,06,17,16,00,22.60
2015,06,17,16,01,22.60
2015,06,17,16,02,22.60
2015,06,17,16,03,22.60
2015,06,17,16,04,22.60
2015,06,17,16,05,22.60
2015,06,17,16,06,22.70
2015,06,17,16,07,22.90
2015,06,17,16,08,22.90
2015,06,17,16,09,22.90
2015,06,17,16,10,22.90
2015,06,17,16,11,22.80
2015,06,17,16,12,22.80
2015,06,17,16,13,22.90
2015,06,17,16,14,22.90
2015,06,17,16,15,22.90
2015,06,17,16,16,22.90
2015,06,17,16,17,22.70
2015,06,17,16,18,22.60
2015,06,17,16,19,22.40
2015,06,17,16,20,22.40
2015,06,17,16,21,22.40
2015,06,17,16,22,22.50
2015,06,17,16,23,22.60
2015,06,17,16,24,22.50
2015,06,17,16,25,22.50
2015,06,17,16,26,22.50
2015,06,17,16,27,22.50
2015,06,17,16,28,22.50
2015,06,17,16,29,22.40
2015,06,17,16,30,22.30
2015,06,17,16,31,22.20
2015,06,17,16,32,22.10
2015,06,17,16,33,22.10
2015,06,17,16,34,22.10
2015,06,17,16,35,22.10
2015,06,17,16,36,22.10
2015,06,17,16,37,22.00
2015,06,17,16,38,22.00
2015,06,17,16,39,22.00
2015,06,17,16,40,22.00
2015,06,17,16,41,22.10
2015,06,17,16,42,22.20
2015,06,17,16,43,22.30
2015,06,17,16,44,22.50
2015,06,17,16,45,22.60
2015,06,17,16,46,22.70
2015,06,17,16,47,22.80
2015,06,17,16,48,22.90
2015,06,17,16,49,22.90
2015,06,17,16,50,22.90
2015,06,17,16,51,22.70
2015,06,17,16,52,22.60
2015,06,17,16,53,22.50
2015,06,17,16,54,22.40
2015,06,17,16,55,22.40
2015,06,17,16,56,22.40
2015,06,17,16,57,22.40
2015,06,17,16,58,22.40
2015,06,17,16,59,22.50
2015,06,17,17,00,22.40
2015,06,17,17,01,22.30
2015,06,17,17,02,22.20
2015,06,17,17,03,22.20
2015,06,17,17,04,22.10
2015,06,17,17,05,22.10
2015,06,17,17,06,22.10
2015,06,17,17,07,22.10
2015,06,17,17,08,22.10
2015,06,17,17,09,22.10
2015,06,17,17,10,22.10
2015,06,17,17,11,22.10
2015,06,17,17,12,22.20
2015,06,17,17,13,22.30
2015,06,17,17,14,22.40
2015,06,17,17,15,22.50
2015,06,17,17,16,22.60
2015,06,17,17,17,22.70
2015,06,17,17,18,22.70
2015,06,17,17,19,22.60
2015,06,17,17,20,22.40
2015,06,17,17,21,22.30
2015,06,17,17,22,22.20
2015,06,17,17,23,22.20
2015,06,17,17,24,22.20
2015,06,17,17,25,22.10
2015,06,17,17,26,22.10
2015,06,17,17,27,22.10
2015,06,17,17,28,22.10
2015,06,17,17,29,22.10
2015,06,17,17,30,22.00
2015,06,17,17,31,22.00
2015,06,17,17,32,22.00
2015,06,17,17,33,21.90
2015,06,17,17,34,21.90
2015,06,17,17,35,21.90
2015,06,17,17,36,22.00
2015,06,17,17,37,22.00
2015,06,17,17,38,22.00
2015,06,17,17,39,22.00
2015,06,17,17,40,22.00
2015,06,17,17,41,22.00
2015,06,17,17,42,21.90
2015,06,17,17,43,22.00
2015,06,17,17,44,22.00
2015,06,17,17,45,22.10
2015,06,17,17,46,22.20
2015,06,17,17,47,22.30
2015,06,17,17,48,22.40
2015,06,17,17,49,22.40
2015,06,17,17,50,22.40
2015,06,17,17,51,22.40
2015,06,17,17,52,22.40
2015,06,17,17,53,22.30
2015,06,17,17,54,22.30
2015,06,17,17,55,22.20
2015,06,17,17,56,22.20
2015,06,17,17,57,22.10
2015,06,17,17,58,22.10
2015,06,17,17,59,22.10
2015,06,17,18,00,22.20
2015,06,17,18,01,22.20
2015,06,17,18,02,22.30
2015,06,17,18,03,22.30
2015,06,17,18,04,22.20
2015,06,17,18,05,22.20
2015,06,17,18,06,22.20
2015,06,17,18,07,22.30
2015,06,17,18,08,22.30
2015,06,17,18,09,22.30
2015,06,17,18,10,22.30
2015,06,17,18,11,22.40
2015,06,17,18,12,22.40
2015,06,17,18,13,22.40
2015,06,17,18,14,22.40
2015,06,17,18,15,22.50
2015,06,17,18,16,22.50
2015,06,17,18,17,22.60
2015,06,17,18,18,22.60
2015,06,17,18,19,22.70
2015,06,17,18,20,22.60
2015,06,17,18,21,22.60
2015,06,17,18,22,22.60
2015,06,17,18,23,22.60
2015,06,17,18,24,22.60
2015,06,17,18,25,22.60
2015,06,17,18,26,22.60
2015,06,17,18,27,22.70
2015,06,17,18,28,22.80
2015,06,17,18,29,22.80
2015,06,17,18,30,22.90
2015,06,17,18,31,22.90
2015,06,17,18,32,23.00
2015,06,17,18,33,23.10
2015,06,17,18,34,23.20
2015,06,17,18,35,23.30
2015,06,17,18,36,23.30
2015,06,17,18,37,23.30
2015,06,17,18,38,23.40
2015,06,17,18,39,23.30
2015,06,17,18,40,23.30
2015,06,17,18,41,23.20
2015,06,17,18,42,23.10
2015,06,17,18,43,23.10
2015,06,17,18,44,23.00
2015,06,17,18,45,22.90
2015,06,17,18,46,22.90
2015,06,17,18,47,22.90
2015,06,17,18,48,22.90
2015,06,17,18,49,22.90
2015,06,17,18,50,22.90
2015,06,17,18,51,22.90
2015,06,17,18,52,22.90
2015,06,17,18,53,22.90
2015,06,17,18,54,22.90
2015,06,17,18,55,22.90
2015,06,17,18,56,22.80
2015,06,17,18,57,22.60
2015,06,17,18,58,22.40
2015,06,17,18,59,22.10
2015,06,17,19,00,22.00
2015,06,17,19,01,21.90
2015,06,17,19,02,21.70
2015,06,17,19,03,21.60
2015,06,17,19,04,21.60
2015,06,17,19,05,21.60
2015,06,17,19,06,21.60
2015,06,17,19,07,21.40
2015,06,17,19,08,21.40
2015,06,17,19,09,21.40
2015,06,17,19,10,21.30
2015,06,17,19,11,21.30
2015,06,17,19,12,21.30
2015,06,17,19,13,21.30
2015,06,17,19,14,21.20
2015,06,17,19,15,21.00
2015,06,17,19,16,20.80
2015,06,17,19,17,20.60
2015,06,17,19,18,20.50
2015,06,17,19,19,20.30
2015,06,17,19,20,20.10
2015,06,17,19,21,20.00
2015,06,17,19,22,19.90
2015,06,17,19,23,19.80
2015,06,17,19,24,19.70
2015,06,17,19,25,19.60
2015,06,17,19,26,19.60
2015,06,17,19,27,19.40
2015,06,17,19,28,19.40
2015,06,17,19,29,19.20
2015,06,17,19,30,19.00
2015,06,17,19,31,18.90
2015,06,17,19,32,18.70
2015,06,17,19,33,18.60
2015,06,17,19,34,18.50
2015,06,17,19,35,18.40
2015,06,17,19,36,18.30
2015,06,17,19,37,18.20
2015,06,17,19,38,18.10
2015,06,17,19,39,18.10
2015,06,17,19,40,18.00
2015,06,17,19,41,17.90
2015,06,17,19,42,17.90
2015,06,17,19,43,17.80
2015,06,17,19,44,17.80
2015,06,17,19,45,17.70
2015,06,17,19,46,17.70
2015,06,17,19,47,17.60
2015,06,17,19,48,17.50
2015,06,17,19,49,17.40
2015,06,17,19,50,17.30
2015,06,17,19,51,17.20
2015,06,17,19,52,17.10
2015,06,17,19,53,17.10
2015,06,17,19,54,17.10
2015,06,17,19,55,17.00
2015,06,17,19,56,17.00
2015,06,17,19,57,17.00
2015,06,17,19,58,16.90
2015,06,17,19,59,16.90
2015,06,17,20,00,16.90
2015,06,17,20,01,16.80
2015,06,17,20,02,16.80
2015,06,17,20,03,16.80
2015,06,17,20,04,16.70
2015,06,17,20,05,16.70
2015,06,17,20,06,16.70
2015,06,17,20,07,16.60
2015,06,17,20,08,16.60
2015,06,17,20,09,16.50
2015,06,17,20,10,16.40
2015,06,17,20,11,16.40
2015,06,17,20,12,16.40
2015,06,17,20,13,16.30
2015,06,17,20,14,16.30
2015,06,17,20,15,16.30
2015,06,17,20,16,16.20
2015,06,17,20,17,16.10
2015,06,17,20,18,16.10
2015,06,17,20,19,16.10
2015,06,17,20,20,15.90
2015,06,17,20,21,15.80
2015,06,17,20,22,15.80
2015,06,17,20,23,15.80
2015,06,17,20,24,15.80
2015,06,17,20,25,15.70
2015,06,17,20,26,15.70
2015,06,17,20,27,15.60
2015,06,17,20,28,15.60
2015,06,17,20,29,15.60
2015,06,17,20,30,15.60
2015,06,17,20,31,15.50
2015,06,17,20,32,15.50
2015,06,17,20,33,15.50
2015,06,17,20,34,15.50
2015,06,17,20,35,15.50
2015,06,17,20,36,15.50
2015,06,17,20,37,15.50
2015,06,17,20,38,15.50
2015,06,17,20,39,15.50
2015,06,17,20,40,15.50
2015,06,17,20,41,15.50
2015,06,17,20,42,15.50
2015,06,17,20,43,15.50
2015,06,17,20,44,15.40
2015,06,17,20,45,15.40
2015,06,17,20,46,15.40
2015,06,17,20,47,15.40
2015,06,17,20,48,15.40
2015,06,17,20,49,15.30
2015,06,17,20,50,15.30
2015,06,17,20,51,15.30
2015,06,17,20,52,15.30
2015,06,17,20,53,15.30
2015,06,17,20,54,15.30
2015,06,17,20,55,15.20
2015,06,17,20,56,15.20
2015,06,17,20,57,15.20
2015,06,17,20,58,15.20
2015,06,17,20,59,15.20
2015,06,17,21,00,15.10
2015,06,17,21,01,15.10
2015,06,17,21,02,15.10
2015,06,17,21,03,15.00
2015,06,17,21,04,15.00
2015,06,17,21,05,15.00
2015,06,17,21,06,14.90
2015,06,17,21,07,14.90
2015,06,17,21,08,14.80
2015,06,17,21,09,14.80
2015,06,17,21,10,14.80
2015,06,17,21,11,14.80
2015,06,17,21,12,14.80
2015,06,17,21,13,14.80
2015,06,17,21,14,14.80
2015,06,17,21,15,14.80
2015,06,17,21,16,14.80
2015,06,17,21,17,14.80
2015,06,17,21,18,14.80
2015,06,17,21,19,14.80
2015,06,17,21,20,14.80
2015,06,17,21,21,14.80
2015,06,17,21,22,14.80
2015,06,17,21,23,14.80
2015,06,17,21,24,14.80
2015,06,17,21,25,14.80
2015,06,17,21,26,14.80
2015,06,17,21,27,14.80
2015,06,17,21,28,14.80
2015,06,17,21,29,14.80
2015,06,17,21,30,14.80
2015,06,17,21,31,14.80
2015,06,17,21,32,14.80
2015,06,17,21,33,14.80
2015,06,17,21,34,14.90
2015,06,17,21,35,14.90
2015,06,17,21,36,14.90
2015,06,17,21,37,14.90
2015,06,17,21,38,14.90
2015,06,17,21,39,14.90
2015,06,17,21,40,14.90
2015,06,17,21,41,14.90
2015,06,17,21,42,14.90
2015,06,17,21,43,14.90
2015,06,17,21,44,14.90
2015,06,17,21,45,14.90
2015,06,17,21,46,14.90
2015,06,17,21,47,14.90
2015,06,17,21,48,14.90
2015,06,17,21,49,14.90
2015,06,17,21,50,14.90
2015,06,17,21,51,14.90
2015,06,17,21,52,14.80
2015,06,17,21,53,14.80
2015,06,17,21,54,14.80
2015,06,17,21,55,14.80
2015,06,17,21,56,14.80
2015,06,17,21,57,14.80
2015,06,17,21,58,14.80
2015,06,17,21,59,14.70
2015,06,17,22,00,14.70
2015,06,17,22,01,14.70
2015,06,17,22,02,14.70
2015,06,17,22,03,14.60
2015,06,17,22,04,14.60
2015,06,17,22,05,14.60
2015,06,17,22,06,14.60
2015,06,17,22,07,14.50
2015,06,17,22,08,14.50
2015,06,17,22,09,14.50
2015,06,17,22,10,14.50
2015,06,17,22,11,14.50
2015,06,17,22,12,14.50
2015,06,17,22,13,14.40
2015,06,17,22,14,14.40
2015,06,17,22,15,14.40
2015,06,17,22,16,14.40
2015,06,17,22,17,14.40
2015,06,17,22,18,14.40
2015,06,17,22,19,14.40
2015,06,17,22,20,14.40
2015,06,17,22,21,14.30
2015,06,17,22,22,14.30
2015,06,17,22,23,14.30
2015,06,17,22,24,14.30
2015,06,17,22,25,14.30
2015,06,17,22,26,14.30
2015,06,17,22,27,14.30
2015,06,17,22,28,14.30
2015,06,17,22,29,14.20
2015,06,17,22,30,14.20
2015,06,17,22,31,14.20
2015,06,17,22,32,14.20
2015,06,17,22,33,14.20
2015,06,17,22,34,14.20
2015,06,17,22,35,14.20
2015,06,17,22,36,14.20
2015,06,17,22,37,14.20
2015,06,17,22,38,14.20
2015,06,17,22,39,14.20
2015,06,17,22,40,14.20
2015,06,17,22,41,14.20
2015,06,17,22,42,14.10
2015,06,17,22,43,14.10
2015,06,17,22,44,14.10
2015,06,17,22,45,14.10
2015,06,17,22,46,14.10
2015,06,17,22,47,14.10
2015,06,17,22,48,14.10
2015,06,17,22,49,14.00
2015,06,17,22,50,14.00
2015,06,17,22,51,14.00
2015,06,17,22,52,14.00
2015,06,17,22,53,14.00
2015,06,17,22,54,14.00
2015,06,17,22,55,14.00
2015,06,17,22,56,13.90
2015,06,17,22,57,13.90
2015,06,17,22,58,13.90
2015,06,17,22,59,13.90
2015,06,17,23,00,13.90
2015,06,17,23,01,13.90
2015,06,17,23,02,13.90
2015,06,17,23,03,13.90
2015,06,17,23,04,13.90
2015,06,17,23,05,13.90
2015,06,17,23,06,13.90
2015,06,17,23,07,13.90
2015,06,17,23,08,13.90
2015,06,17,23,09,13.90
2015,06,17,23,10,13.90
